,,,PA_Meas_PMT16A,,PR_Meas_QMR101_102,,RH_Meas_QMH101,,SR_Meas_QMS101,,TA_Meas_QMH101,,GenWind,,GenWind,
date,time,status,PA,status,PR,status,RH,status,SR,status,TA,status,DirAvg,status,SpdAvg,
2010-08-13, 00:00:04,VALID,1005.86,VALID,0,INVALID,116.783,VALID,0,VALID,24.6166,VALID,360,VALID,0.523047,
2010-08-13, 00:01:04,VALID,1005.84,VALID,0,INVALID,116.791,VALID,0,VALID,24.6166,VALID,360,VALID,0.546484,
2010-08-13, 00:02:04,VALID,1005.82,VALID,0,INVALID,116.798,VALID,0,VALID,24.6574,VALID,360,VALID,0.475,
2010-08-13, 00:03:04,VALID,1005.81,VALID,0,INVALID,116.798,VALID,0,VALID,24.6166,VALID,360,VALID,0.476563,
2010-08-13, 00:04:04,VALID,1005.82,VALID,0,INVALID,116.791,VALID,0,VALID,24.6166,VALID,360,VALID,0.459766,
2010-08-13, 00:05:04,VALID,1005.79,VALID,0,INVALID,116.836,VALID,0,VALID,24.5972,VALID,360,VALID,0.4,
2010-08-13, 00:06:04,VALID,1005.78,VALID,0,INVALID,116.806,VALID,0,VALID,24.6185,VALID,360,VALID,0.200391,
2010-08-13, 00:07:04,VALID,1005.74,VALID,0,INVALID,116.798,VALID,0,VALID,24.6166,VALID,360,VALID,0.167578,
2010-08-13, 00:08:04,VALID,1005.75,VALID,0,INVALID,116.821,VALID,0,VALID,24.6166,VALID,360,VALID,0.228516,
2010-08-13, 00:09:04,VALID,1005.74,VALID,0,INVALID,116.813,VALID,0,VALID,24.5972,VALID,360,VALID,0.198828,
2010-08-13, 00:10:04,VALID,1005.72,VALID,0,INVALID,116.829,VALID,0,VALID,24.6185,VALID,360,VALID,0.291406,
2010-08-13, 00:11:04,VALID,1005.71,VALID,0,INVALID,116.821,VALID,0,VALID,24.6185,VALID,360,VALID,0.292969,
2010-08-13, 00:12:04,VALID,1005.69,VALID,0,INVALID,116.836,VALID,0,VALID,24.5972,VALID,360,VALID,0.522656,
2010-08-13, 00:13:04,VALID,1005.65,VALID,0,INVALID,116.821,VALID,0,VALID,24.599,VALID,360,VALID,0.421875,
2010-08-13, 00:14:04,VALID,1005.67,VALID,0,INVALID,116.829,VALID,0,VALID,24.6185,VALID,360,VALID,0.396875,
2010-08-13, 00:15:04,VALID,1005.65,VALID,0,INVALID,116.806,VALID,0,VALID,24.638,VALID,360,VALID,0.447266,
2010-08-13, 00:16:04,VALID,1005.66,VALID,0,INVALID,116.844,VALID,0,VALID,24.638,VALID,360,VALID,0.408203,
2010-08-13, 00:17:04,VALID,1005.67,VALID,0,INVALID,116.829,VALID,0,VALID,24.5972,VALID,360,VALID,0.292578,
2010-08-13, 00:18:04,VALID,1005.69,VALID,0,INVALID,116.829,VALID,0,VALID,24.6185,VALID,360,VALID,0.34375,
2010-08-13, 00:19:04,VALID,1005.68,VALID,0,INVALID,116.821,VALID,0,VALID,24.599,VALID,360,VALID,0.0753906,
2010-08-13, 00:20:04,VALID,1005.69,VALID,0,INVALID,116.821,VALID,0,VALID,24.5777,VALID,360,VALID,0.0285156,
2010-08-13, 00:21:04,VALID,1005.67,VALID,0,INVALID,116.806,VALID,0,VALID,24.599,VALID,360,VALID,0.220703,
2010-08-13, 00:22:04,VALID,1005.68,VALID,0,INVALID,116.775,VALID,0,VALID,24.5777,VALID,360,VALID,0.0296875,
2010-08-13, 00:23:04,VALID,1005.65,VALID,0,INVALID,116.783,VALID,0,VALID,24.5777,VALID,360,VALID,0.0242187,
2010-08-13, 00:24:04,VALID,1005.62,VALID,0,INVALID,116.806,VALID,0,VALID,24.6185,VALID,360,VALID,0.0957031,
2010-08-13, 00:25:04,VALID,1005.58,VALID,0,INVALID,116.791,VALID,0,VALID,24.5972,VALID,360,VALID,0.315234,
2010-08-13, 00:26:04,VALID,1005.62,VALID,0,INVALID,116.791,VALID,0,VALID,24.5972,VALID,360,VALID,0.3875,
2010-08-13, 00:27:04,VALID,1005.6,VALID,0,INVALID,116.829,VALID,0,VALID,24.6166,VALID,360,VALID,0.521484,
2010-08-13, 00:28:04,VALID,1005.59,VALID,0,INVALID,116.829,VALID,0,VALID,24.6185,VALID,360,VALID,0.656641,
2010-08-13, 00:29:04,VALID,1005.53,VALID,0,INVALID,116.813,VALID,0,VALID,24.5777,VALID,360,VALID,0.716406,
2010-08-13, 00:30:04,VALID,1005.52,VALID,0,INVALID,116.798,VALID,0,VALID,24.599,VALID,360,VALID,0.698438,
2010-08-13, 00:31:04,VALID,1005.5,VALID,0,INVALID,116.806,VALID,0,VALID,24.6185,VALID,360,VALID,0.638672,
2010-08-13, 00:32:04,VALID,1005.47,VALID,0,INVALID,116.806,VALID,0,VALID,24.6204,VALID,360,VALID,0.68125,
2010-08-13, 00:33:04,VALID,1005.48,VALID,0,INVALID,116.752,VALID,0,VALID,24.599,VALID,360,VALID,0.644922,
2010-08-13, 00:34:04,VALID,1005.48,VALID,0,INVALID,116.737,VALID,0,VALID,24.5777,VALID,360,VALID,0.675781,
2010-08-13, 00:35:04,VALID,1005.47,VALID,0,INVALID,116.745,VALID,0,VALID,24.5777,VALID,360,VALID,0.497656,
2010-08-13, 00:36:04,VALID,1005.46,VALID,0,INVALID,116.768,VALID,0,VALID,24.6185,VALID,360,VALID,0.61875,
2010-08-13, 00:37:04,VALID,1005.44,VALID,0,INVALID,116.714,VALID,0,VALID,24.599,VALID,360,VALID,0.461719,
2010-08-13, 00:38:04,VALID,1005.42,VALID,0,INVALID,116.76,VALID,0,VALID,24.6185,VALID,360,VALID,0.500391,
2010-08-13, 00:39:04,VALID,1005.42,VALID,0,INVALID,116.729,VALID,0,VALID,24.599,VALID,360,VALID,0.413672,
2010-08-13, 00:40:04,VALID,1005.38,VALID,0,INVALID,116.76,VALID,0,VALID,24.6185,VALID,360,VALID,0.367188,
2010-08-13, 00:41:04,VALID,1005.38,VALID,0,INVALID,116.729,VALID,0,VALID,24.6185,VALID,360,VALID,0.476953,
2010-08-13, 00:42:04,VALID,1005.36,VALID,0,INVALID,116.729,VALID,0,VALID,24.638,VALID,360,VALID,0.511719,
2010-08-13, 00:43:04,VALID,1005.36,VALID,0,INVALID,116.768,VALID,0,VALID,24.6361,VALID,360,VALID,0.410156,
2010-08-13, 00:44:04,VALID,1005.35,VALID,0,INVALID,116.775,VALID,0,VALID,24.6361,VALID,360,VALID,0.437109,
2010-08-13, 00:45:04,VALID,1005.34,VALID,0,INVALID,116.798,VALID,0,VALID,24.6361,VALID,360,VALID,0.375781,
2010-08-13, 00:46:04,VALID,1005.33,VALID,0,INVALID,116.768,VALID,0,VALID,24.5972,VALID,360,VALID,0.219922,
2010-08-13, 00:47:04,VALID,1005.34,VALID,0,INVALID,116.768,VALID,0,VALID,24.6185,VALID,360,VALID,0.128906,
2010-08-13, 00:48:04,VALID,1005.32,VALID,0,INVALID,116.775,VALID,0,VALID,24.5972,VALID,360,VALID,0,
2010-08-13, 00:49:04,VALID,1005.34,VALID,0,INVALID,116.76,VALID,0,VALID,24.6185,VALID,360,VALID,0.0167969,
2010-08-13, 00:50:04,VALID,1005.3,VALID,0,INVALID,116.783,VALID,0,VALID,24.5972,VALID,360,VALID,0.115625,
2010-08-13, 00:51:04,VALID,1005.27,VALID,0,INVALID,116.775,VALID,0,VALID,24.6185,VALID,360,VALID,0.0378906,
2010-08-13, 00:52:04,VALID,1005.25,VALID,0,INVALID,116.813,VALID,0,VALID,24.6166,VALID,360,VALID,0,
2010-08-13, 00:53:04,VALID,1005.21,VALID,0,INVALID,116.798,VALID,0,VALID,24.6361,VALID,360,VALID,0,
2010-08-13, 00:54:04,VALID,1005.24,VALID,0,INVALID,116.798,VALID,0,VALID,24.6574,VALID,360,VALID,0,
2010-08-13, 00:55:04,VALID,1005.19,VALID,0,INVALID,116.821,VALID,0,VALID,24.6556,VALID,360,VALID,0.257422,
2010-08-13, 00:56:04,VALID,1005.18,VALID,0,INVALID,116.798,VALID,0,VALID,24.6964,VALID,360,VALID,0.281641,
2010-08-13, 00:57:04,VALID,1005.18,VALID,0,INVALID,116.829,VALID,0,VALID,24.675,VALID,360,VALID,0.460547,
2010-08-13, 00:58:04,VALID,1005.2,VALID,0,INVALID,116.874,VALID,0,VALID,24.675,VALID,360,VALID,0.480078,
2010-08-13, 00:59:04,VALID,1005.2,VALID,0,INVALID,116.852,VALID,0,VALID,24.6342,VALID,360,VALID,0.455469,
2010-08-13, 01:00:04,VALID,1005.18,VALID,0,INVALID,116.859,VALID,0,VALID,24.6361,VALID,360,VALID,0.387109,
2010-08-13, 01:01:04,VALID,1005.22,VALID,0,INVALID,116.829,VALID,0,VALID,24.6361,VALID,360,VALID,0.471094,
2010-08-13, 01:02:04,VALID,1005.2,VALID,0,INVALID,116.798,VALID,0,VALID,24.638,VALID,360,VALID,0.452344,
2010-08-13, 01:03:04,VALID,1005.25,VALID,0,INVALID,116.798,VALID,0,VALID,24.6166,VALID,360,VALID,0.524609,
2010-08-13, 01:04:04,VALID,1005.23,VALID,0,INVALID,116.76,VALID,0,VALID,24.6185,VALID,360,VALID,0.521094,
2010-08-13, 01:05:04,VALID,1005.24,VALID,0,INVALID,116.76,VALID,0,VALID,24.5972,VALID,360,VALID,0.632422,
2010-08-13, 01:06:04,VALID,1005.21,VALID,0,INVALID,116.752,VALID,0,VALID,24.5972,VALID,360,VALID,0.613672,
2010-08-13, 01:07:04,VALID,1005.22,VALID,0,INVALID,116.745,VALID,0,VALID,24.5777,VALID,360,VALID,0.493359,
2010-08-13, 01:08:04,VALID,1005.21,VALID,0,INVALID,116.722,VALID,0,VALID,24.5777,VALID,360,VALID,0.48125,
2010-08-13, 01:09:04,VALID,1005.21,VALID,0,INVALID,116.707,VALID,0,VALID,24.599,VALID,360,VALID,0.551953,
2010-08-13, 01:10:04,VALID,1005.21,VALID,0,INVALID,116.691,VALID,0,VALID,24.5777,VALID,360,VALID,0.346484,
2010-08-13, 01:11:04,VALID,1005.18,VALID,0,INVALID,116.699,VALID,0,VALID,24.5972,VALID,360,VALID,0.358984,
2010-08-13, 01:12:04,VALID,1005.2,VALID,0,INVALID,116.691,VALID,0,VALID,24.5972,VALID,360,VALID,0.272656,
2010-08-13, 01:13:04,VALID,1005.2,VALID,0,INVALID,116.668,VALID,0,VALID,24.5972,VALID,360,VALID,0.352734,
2010-08-13, 01:14:04,VALID,1005.19,VALID,0,INVALID,116.668,VALID,0,VALID,24.5972,VALID,360,VALID,0.366406,
2010-08-13, 01:15:04,VALID,1005.15,VALID,0,INVALID,116.668,VALID,0,VALID,24.6166,VALID,360,VALID,0.446484,
2010-08-13, 01:16:04,VALID,1005.14,VALID,0,INVALID,116.691,VALID,0,VALID,24.6166,VALID,360,VALID,0.536719,
2010-08-13, 01:17:04,VALID,1005.11,VALID,0,INVALID,116.653,VALID,0,VALID,24.6185,VALID,360,VALID,0.437109,
2010-08-13, 01:18:04,VALID,1005.11,VALID,0,INVALID,116.668,VALID,0,VALID,24.6166,VALID,360,VALID,0.591016,
2010-08-13, 01:19:04,VALID,1005.1,VALID,0,INVALID,116.646,VALID,0,VALID,24.6166,VALID,360,VALID,0.658594,
2010-08-13, 01:20:04,VALID,1005.07,VALID,0,INVALID,116.638,VALID,0,VALID,24.5972,VALID,360,VALID,0.607813,
2010-08-13, 01:21:04,VALID,1005.05,VALID,0,INVALID,116.668,VALID,0,VALID,24.5972,VALID,360,VALID,0.45625,
2010-08-13, 01:22:04,VALID,1005.05,VALID,0,INVALID,116.623,VALID,0,VALID,24.5972,VALID,360,VALID,0.342969,
2010-08-13, 01:23:04,VALID,1005.07,VALID,0,INVALID,116.6,VALID,0,VALID,24.638,VALID,360,VALID,0.338281,
2010-08-13, 01:24:04,VALID,1005.03,VALID,0,INVALID,116.562,VALID,0,VALID,24.6166,VALID,360,VALID,0.289063,
2010-08-13, 01:25:04,VALID,1005.07,VALID,0,INVALID,116.539,VALID,0,VALID,24.6166,VALID,360,VALID,0.251953,
2010-08-13, 01:26:04,VALID,1005.07,VALID,0,INVALID,116.562,VALID,0,VALID,24.638,VALID,360,VALID,0.20625,
2010-08-13, 01:27:04,VALID,1005.06,VALID,0,INVALID,116.524,VALID,0,VALID,24.6185,VALID,360,VALID,0.346484,
2010-08-13, 01:28:04,VALID,1005.05,VALID,0,INVALID,116.516,VALID,0,VALID,24.5777,VALID,360,VALID,0.100781,
2010-08-13, 01:29:04,VALID,1005.03,VALID,0,INVALID,116.485,VALID,0,VALID,24.5972,VALID,360,VALID,0.33125,
2010-08-13, 01:30:04,VALID,1005.01,VALID,0,INVALID,116.493,VALID,0,VALID,24.6185,VALID,360,VALID,0.246094,
2010-08-13, 01:31:04,VALID,1004.95,VALID,0,INVALID,116.478,VALID,0,VALID,24.6166,VALID,360,VALID,0.259375,
2010-08-13, 01:32:04,VALID,1004.94,VALID,0,INVALID,116.47,VALID,0,VALID,24.638,VALID,360,VALID,0.447266,
2010-08-13, 01:33:04,VALID,1004.9,VALID,0,INVALID,116.478,VALID,0,VALID,24.6185,VALID,360,VALID,0.362109,
2010-08-13, 01:34:04,VALID,1004.88,VALID,0,INVALID,116.47,VALID,0,VALID,24.6185,VALID,360,VALID,0.512891,
2010-08-13, 01:35:04,VALID,1004.84,VALID,0,INVALID,116.516,VALID,0,VALID,24.599,VALID,360,VALID,0.513281,
2010-08-13, 01:36:04,VALID,1004.82,VALID,0,INVALID,116.516,VALID,0,VALID,24.5796,VALID,360,VALID,0.603906,
2010-08-13, 01:37:04,VALID,1004.81,VALID,0,INVALID,116.501,VALID,0,VALID,24.5796,VALID,360,VALID,0.657422,
2010-08-13, 01:38:04,VALID,1004.8,VALID,0,INVALID,116.485,VALID,0,VALID,24.5796,VALID,360,VALID,0.673047,
2010-08-13, 01:39:04,VALID,1004.75,VALID,0,INVALID,116.47,VALID,0,VALID,24.5388,VALID,360,VALID,0.483594,
2010-08-13, 01:40:04,VALID,1004.77,VALID,0,INVALID,116.462,VALID,0,VALID,24.5406,VALID,360,VALID,0.442969,
2010-08-13, 01:41:04,VALID,1004.78,VALID,0,INVALID,116.455,VALID,0,VALID,24.5212,VALID,360,VALID,0.447656,
2010-08-13, 01:42:04,VALID,1004.79,VALID,0,INVALID,116.44,VALID,0,VALID,24.4998,VALID,360,VALID,0.235156,
2010-08-13, 01:43:04,VALID,1004.78,VALID,0,INVALID,116.455,VALID,0,VALID,24.4998,VALID,360,VALID,0.309375,
2010-08-13, 01:44:04,VALID,1004.77,VALID,0,INVALID,116.432,VALID,0,VALID,24.5193,VALID,360,VALID,0.345313,
2010-08-13, 01:45:04,VALID,1004.78,VALID,0,INVALID,116.409,VALID,0,VALID,24.4998,VALID,360,VALID,0.349609,
2010-08-13, 01:46:04,VALID,1004.77,VALID,0,INVALID,116.424,VALID,0,VALID,24.5212,VALID,360,VALID,0.253125,
2010-08-13, 01:47:04,VALID,1004.77,VALID,0,INVALID,116.432,VALID,0,VALID,24.4998,VALID,360,VALID,0,
2010-08-13, 01:48:04,VALID,1004.78,VALID,0,INVALID,116.394,VALID,0,VALID,24.5017,VALID,360,VALID,0,
2010-08-13, 01:49:04,VALID,1004.79,VALID,0,INVALID,116.417,VALID,0,VALID,24.4998,VALID,360,VALID,0,
2010-08-13, 01:50:04,VALID,1004.76,VALID,0,INVALID,116.363,VALID,0,VALID,24.5017,VALID,360,VALID,0,
2010-08-13, 01:51:04,VALID,1004.75,VALID,0,INVALID,116.379,VALID,0,VALID,24.5017,VALID,360,VALID,0.113281,
2010-08-13, 01:52:04,VALID,1004.76,VALID,0,INVALID,116.333,VALID,0,VALID,24.5017,VALID,360,VALID,0.206641,
2010-08-13, 01:53:04,VALID,1004.74,VALID,0,INVALID,116.348,VALID,0,VALID,24.4822,VALID,360,VALID,0,
2010-08-13, 01:54:04,VALID,1004.73,VALID,0,INVALID,116.318,VALID,0,VALID,24.4609,VALID,360,VALID,0.489062,
2010-08-13, 01:55:04,VALID,1004.71,VALID,0,INVALID,116.279,VALID,0,VALID,24.4628,VALID,360,VALID,0.353125,
2010-08-13, 01:56:04,VALID,1004.71,VALID,0,INVALID,116.203,VALID,0,VALID,24.4628,VALID,360,VALID,0.389453,
2010-08-13, 01:57:04,VALID,1004.73,VALID,0,INVALID,116.134,VALID,0,VALID,24.4414,VALID,360,VALID,0.519922,
2010-08-13, 01:58:04,VALID,1004.73,VALID,0,INVALID,116.081,VALID,0,VALID,24.4628,VALID,360,VALID,0.666016,
2010-08-13, 01:59:04,VALID,1004.69,VALID,0,INVALID,116.066,VALID,0,VALID,24.4451,VALID,360,VALID,0.814844,
2010-08-13, 02:00:04,VALID,1004.71,VALID,0,INVALID,116.051,VALID,0,VALID,24.4025,VALID,360,VALID,0.589063,
2010-08-13, 02:01:04,VALID,1004.69,VALID,0,INVALID,115.967,VALID,0,VALID,24.4238,VALID,360,VALID,0.549219,
2010-08-13, 02:02:04,VALID,1004.69,VALID,0,INVALID,115.875,VALID,0,VALID,24.383,VALID,360,VALID,0.336328,
2010-08-13, 02:03:04,VALID,1004.71,VALID,0,INVALID,115.806,VALID,0,VALID,24.4238,VALID,360,VALID,0.2375,
2010-08-13, 02:04:04,VALID,1004.69,VALID,0,INVALID,115.768,VALID,0,VALID,24.3849,VALID,360,VALID,0,
2010-08-13, 02:05:04,VALID,1004.71,VALID,0,INVALID,115.745,VALID,0,VALID,24.383,VALID,360,VALID,0,
2010-08-13, 02:06:04,VALID,1004.72,VALID,0,INVALID,115.661,VALID,0,VALID,24.4025,VALID,360,VALID,0.286719,
2010-08-13, 02:07:04,VALID,1004.73,VALID,0,INVALID,115.524,VALID,0,VALID,24.422,VALID,360,VALID,0.235547,
2010-08-13, 02:08:04,VALID,1004.74,VALID,0,INVALID,115.471,VALID,0,VALID,24.422,VALID,360,VALID,0.217969,
2010-08-13, 02:09:04,VALID,1004.72,VALID,0,INVALID,115.501,VALID,0,VALID,24.4025,VALID,360,VALID,0.075,
2010-08-13, 02:10:04,VALID,1004.73,VALID,0,INVALID,115.547,VALID,0,VALID,24.4025,VALID,360,VALID,0.229687,
2010-08-13, 02:11:04,VALID,1004.74,VALID,0,INVALID,115.578,VALID,0,VALID,24.383,VALID,15,VALID,0.496094,
2010-08-13, 02:12:04,VALID,1004.75,VALID,0,INVALID,115.646,VALID,0,VALID,24.3849,VALID,15,VALID,0.421484,
2010-08-13, 02:13:04,VALID,1004.76,VALID,0,INVALID,115.669,VALID,0,VALID,24.3849,VALID,15,VALID,0.229297,
2010-08-13, 02:14:04,VALID,1004.74,VALID,0,INVALID,115.661,VALID,0,VALID,24.3654,VALID,15,VALID,0.225391,
2010-08-13, 02:15:04,VALID,1004.76,VALID,0,INVALID,115.669,VALID,0,VALID,24.3246,VALID,15,VALID,0.246875,
2010-08-13, 02:16:04,VALID,1004.73,VALID,0,INVALID,115.677,VALID,0,VALID,24.3654,VALID,15,VALID,0.210156,
2010-08-13, 02:17:04,VALID,1004.74,VALID,0,INVALID,115.692,VALID,0,VALID,24.3654,VALID,18,VALID,0.254687,
2010-08-13, 02:18:04,VALID,1004.71,VALID,0,INVALID,115.692,VALID,0,VALID,24.3246,VALID,70,VALID,0.468359,
2010-08-13, 02:19:04,VALID,1004.7,VALID,0,INVALID,115.7,VALID,0,VALID,24.3459,VALID,72,VALID,0.464063,
2010-08-13, 02:20:04,VALID,1004.66,VALID,0,INVALID,115.7,VALID,0,VALID,24.3052,VALID,58,VALID,0.46875,
2010-08-13, 02:21:04,VALID,1004.64,VALID,0,INVALID,115.677,VALID,0,VALID,24.3265,VALID,58,VALID,0.411328,
2010-08-13, 02:22:04,VALID,1004.61,VALID,0,INVALID,115.661,VALID,0,VALID,24.3052,VALID,58,VALID,0.339063,
2010-08-13, 02:23:04,VALID,1004.6,VALID,0,INVALID,115.646,VALID,0,VALID,24.3246,VALID,58,VALID,0.218359,
2010-08-13, 02:24:04,VALID,1004.6,VALID,0,INVALID,115.623,VALID,0,VALID,24.3246,VALID,58,VALID,0.0945313,
2010-08-13, 02:25:04,VALID,1004.58,VALID,0,INVALID,115.616,VALID,0,VALID,24.3246,VALID,58,VALID,0,
2010-08-13, 02:26:04,VALID,1004.61,VALID,0,INVALID,115.639,VALID,0,VALID,24.3459,VALID,58,VALID,0,
2010-08-13, 02:27:04,VALID,1004.57,VALID,0,INVALID,115.654,VALID,0,VALID,24.3246,VALID,58,VALID,0.0671875,
2010-08-13, 02:28:04,VALID,1004.54,VALID,0,INVALID,115.646,VALID,0,VALID,24.3265,VALID,58,VALID,0.236328,
2010-08-13, 02:29:04,VALID,1004.55,VALID,0,INVALID,115.677,VALID,0,VALID,24.3246,VALID,58,VALID,0.233203,
2010-08-13, 02:30:04,VALID,1004.56,VALID,0,INVALID,115.654,VALID,0,VALID,24.3052,VALID,58,VALID,0.303906,
2010-08-13, 02:31:04,VALID,1004.55,VALID,0,INVALID,115.631,VALID,0,VALID,24.3052,VALID,58,VALID,0.167969,
2010-08-13, 02:32:04,VALID,1004.56,VALID,0,INVALID,115.616,VALID,0,VALID,24.2857,VALID,58,VALID,0,
2010-08-13, 02:33:04,VALID,1004.55,VALID,0,INVALID,115.616,VALID,0,VALID,24.307,VALID,58,VALID,0.155859,
2010-08-13, 02:34:04,VALID,1004.51,VALID,0,INVALID,115.639,VALID,0,VALID,24.2857,VALID,58,VALID,0.362109,
2010-08-13, 02:35:04,VALID,1004.49,VALID,0,INVALID,115.684,VALID,0,VALID,24.2662,VALID,58,VALID,0.326953,
2010-08-13, 02:36:04,VALID,1004.47,VALID,0,INVALID,115.661,VALID,0,VALID,24.2468,VALID,58,VALID,0.377344,
2010-08-13, 02:37:04,VALID,1004.48,VALID,0,INVALID,115.646,VALID,0,VALID,24.2078,VALID,58,VALID,0.145313,
2010-08-13, 02:38:04,VALID,1004.44,VALID,0,INVALID,115.631,VALID,0,VALID,24.2486,VALID,58,VALID,0,
2010-08-13, 02:39:04,VALID,1004.44,VALID,0,INVALID,115.623,VALID,0,VALID,24.2078,VALID,24,VALID,0.396484,
2010-08-13, 02:40:04,VALID,1004.45,VALID,0,INVALID,115.539,VALID,0,VALID,24.2486,VALID,24,VALID,0.329297,
2010-08-13, 02:41:04,VALID,1004.44,VALID,0,INVALID,115.478,VALID,0,VALID,24.2273,VALID,24,VALID,0.03125,
2010-08-13, 02:42:04,VALID,1004.49,VALID,0,INVALID,115.471,VALID,0,VALID,24.2486,VALID,24,VALID,0,
2010-08-13, 02:43:04,VALID,1004.51,VALID,0,INVALID,115.471,VALID,0,VALID,24.2291,VALID,24,VALID,0,
2010-08-13, 02:44:04,VALID,1004.56,VALID,0,INVALID,115.494,VALID,0,VALID,24.1884,VALID,24,VALID,0.341016,
2010-08-13, 02:45:04,VALID,1004.55,VALID,0,INVALID,115.517,VALID,0,VALID,24.2097,VALID,24,VALID,0.5,
2010-08-13, 02:46:04,VALID,1004.57,VALID,0,INVALID,115.608,VALID,0,VALID,24.1494,VALID,24,VALID,0.534766,
2010-08-13, 02:47:04,VALID,1004.53,VALID,0,INVALID,115.707,VALID,0,VALID,24.091,VALID,24,VALID,0.714844,
2010-08-13, 02:48:04,VALID,1004.52,VALID,0,INVALID,115.631,VALID,0,VALID,24.091,VALID,24,VALID,0.645703,
2010-08-13, 02:49:04,VALID,1004.47,VALID,0,INVALID,115.6,VALID,0,VALID,24.0716,VALID,24,VALID,0.722266,
2010-08-13, 02:50:04,VALID,1004.45,VALID,0,INVALID,115.539,VALID,0,VALID,24.0521,VALID,24,VALID,0.583203,
2010-08-13, 02:51:04,VALID,1004.42,VALID,0,INVALID,115.501,VALID,0,VALID,24.0734,VALID,24,VALID,0.477344,
2010-08-13, 02:52:04,VALID,1004.44,VALID,0,INVALID,115.448,VALID,0,VALID,24.0326,VALID,24,VALID,0.451562,
2010-08-13, 02:53:04,VALID,1004.42,VALID,0,INVALID,115.425,VALID,0,VALID,24.0132,VALID,24,VALID,0.00820312,
2010-08-13, 02:54:04,VALID,1004.46,VALID,0,INVALID,115.387,VALID,0,VALID,24.015,VALID,24,VALID,0.0761719,
2010-08-13, 02:55:04,VALID,1004.44,VALID,0,INVALID,115.349,VALID,0,VALID,23.9937,VALID,24,VALID,0,
2010-08-13, 02:56:04,VALID,1004.45,VALID,0,INVALID,115.295,VALID,0,VALID,24.015,VALID,24,VALID,0,
2010-08-13, 02:57:04,VALID,1004.45,VALID,0,INVALID,115.272,VALID,0,VALID,23.953,VALID,24,VALID,0,
2010-08-13, 02:58:04,VALID,1004.45,VALID,0,INVALID,115.303,VALID,0,VALID,23.9955,VALID,24,VALID,0,
2010-08-13, 02:59:04,VALID,1004.42,VALID,0,INVALID,115.295,VALID,0,VALID,23.9761,VALID,24,VALID,0,
2010-08-13, 03:00:04,VALID,1004.39,VALID,0,INVALID,115.234,VALID,0,VALID,23.9566,VALID,24,VALID,0,
2010-08-13, 03:01:04,VALID,1004.38,VALID,0,INVALID,115.143,VALID,0,VALID,23.9548,VALID,24,VALID,0.254297,
2010-08-13, 03:02:04,VALID,1004.35,VALID,0,INVALID,115.15,VALID,0,VALID,23.9955,VALID,24,VALID,0.391797,
2010-08-13, 03:03:04,VALID,1004.31,VALID,0,INVALID,115.196,VALID,0,VALID,23.9353,VALID,24,VALID,0.373437,
2010-08-13, 03:04:04,VALID,1004.32,VALID,0,INVALID,115.257,VALID,0,VALID,23.8982,VALID,24,VALID,0.308594,
2010-08-13, 03:05:04,VALID,1004.3,VALID,0,INVALID,115.242,VALID,0,VALID,23.8769,VALID,24,VALID,0.392969,
2010-08-13, 03:06:04,VALID,1004.29,VALID,0,INVALID,115.234,VALID,0,VALID,23.8787,VALID,24,VALID,0.361328,
2010-08-13, 03:07:04,VALID,1004.31,VALID,0,INVALID,115.227,VALID,0,VALID,23.838,VALID,24,VALID,0.320313,
2010-08-13, 03:08:04,VALID,1004.29,VALID,0,INVALID,115.227,VALID,0,VALID,23.8185,VALID,24,VALID,0.314063,
2010-08-13, 03:09:04,VALID,1004.28,VALID,0,INVALID,115.196,VALID,0,VALID,23.8398,VALID,24,VALID,0.426953,
2010-08-13, 03:10:04,VALID,1004.28,VALID,0,INVALID,115.15,VALID,0,VALID,23.8203,VALID,24,VALID,0.488281,
2010-08-13, 03:11:04,VALID,1004.27,VALID,0,INVALID,115.127,VALID,0,VALID,23.8009,VALID,21,VALID,0.561719,
2010-08-13, 03:12:04,VALID,1004.27,VALID,0,INVALID,115.181,VALID,0,VALID,23.7619,VALID,15,VALID,0.537891,
2010-08-13, 03:13:04,VALID,1004.29,VALID,0,INVALID,115.242,VALID,0,VALID,23.7425,VALID,12,VALID,0.544922,
2010-08-13, 03:14:04,VALID,1004.28,VALID,0,INVALID,115.242,VALID,0,VALID,23.723,VALID,12,VALID,0.540625,
2010-08-13, 03:15:04,VALID,1004.29,VALID,0,INVALID,115.196,VALID,0,VALID,23.6841,VALID,12,VALID,0.441406,
2010-08-13, 03:16:04,VALID,1004.27,VALID,0,INVALID,115.082,VALID,0,VALID,23.6628,VALID,12,VALID,0.495313,
2010-08-13, 03:17:04,VALID,1004.28,VALID,0,INVALID,114.952,VALID,0,VALID,23.6823,VALID,12,VALID,0.4125,
2010-08-13, 03:18:04,VALID,1004.27,VALID,0,INVALID,114.86,VALID,0,VALID,23.6823,VALID,12,VALID,0.476172,
2010-08-13, 03:19:04,VALID,1004.26,VALID,0,INVALID,114.784,VALID,0,VALID,23.7017,VALID,12,VALID,0.533203,
2010-08-13, 03:20:04,VALID,1004.25,VALID,0,INVALID,114.7,VALID,0,VALID,23.723,VALID,12,VALID,0.554688,
2010-08-13, 03:21:04,VALID,1004.25,VALID,0,INVALID,114.616,VALID,0,VALID,23.7017,VALID,11,VALID,0.604688,
2010-08-13, 03:22:04,VALID,1004.25,VALID,0,INVALID,114.525,VALID,0,VALID,23.7425,VALID,6,VALID,0.596875,
2010-08-13, 03:23:04,VALID,1004.23,VALID,0,INVALID,114.441,VALID,0,VALID,23.7425,VALID,6,VALID,0.492578,
2010-08-13, 03:24:04,VALID,1004.23,VALID,0,INVALID,114.448,VALID,0,VALID,23.7425,VALID,6,VALID,0.648047,
2010-08-13, 03:25:04,VALID,1004.23,VALID,0,INVALID,114.418,VALID,0,VALID,23.7425,VALID,6,VALID,0.720703,
2010-08-13, 03:26:04,VALID,1004.24,VALID,0,INVALID,114.426,VALID,0,VALID,23.7017,VALID,6,VALID,0.584375,
2010-08-13, 03:27:04,VALID,1004.2,VALID,0,INVALID,114.418,VALID,0,VALID,23.7035,VALID,6,VALID,0.580078,
2010-08-13, 03:28:04,VALID,1004.22,VALID,0,INVALID,114.357,VALID,0,VALID,23.7035,VALID,6,VALID,0.530859,
2010-08-13, 03:29:04,VALID,1004.19,VALID,0,INVALID,114.273,VALID,0,VALID,23.7035,VALID,6,VALID,0.565234,
2010-08-13, 03:30:04,VALID,1004.18,VALID,0,INVALID,114.265,VALID,0,VALID,23.7035,VALID,6,VALID,0.602734,
2010-08-13, 03:31:04,VALID,1004.14,VALID,0,INVALID,114.235,VALID,0,VALID,23.6841,VALID,6,VALID,0.647266,
2010-08-13, 03:32:04,VALID,1004.15,VALID,0,INVALID,114.204,VALID,0,VALID,23.6823,VALID,6,VALID,0.572266,
2010-08-13, 03:33:04,VALID,1004.18,VALID,0,INVALID,114.143,VALID,0,VALID,23.6823,VALID,6,VALID,0.5375,
2010-08-13, 03:34:04,VALID,1004.17,VALID,0,INVALID,114.037,VALID,0,VALID,23.723,VALID,6,VALID,0.668359,
2010-08-13, 03:35:04,VALID,1004.17,VALID,0,INVALID,113.983,VALID,0,VALID,23.723,VALID,6,VALID,0.41875,
2010-08-13, 03:36:04,VALID,1004.18,VALID,0,INVALID,113.884,VALID,0,VALID,23.7425,VALID,6,VALID,0.516016,
2010-08-13, 03:37:04,VALID,1004.18,VALID,0,INVALID,113.838,VALID,0,VALID,23.7425,VALID,6,VALID,0.351172,
2010-08-13, 03:38:04,VALID,1004.2,VALID,0,INVALID,113.769,VALID,0,VALID,23.7407,VALID,6,VALID,0.409766,
2010-08-13, 03:39:04,VALID,1004.22,VALID,0,INVALID,113.731,VALID,0,VALID,23.7814,VALID,6,VALID,0.269531,
2010-08-13, 03:40:04,VALID,1004.22,VALID,0,INVALID,113.731,VALID,0,VALID,23.7619,VALID,6,VALID,0.292578,
2010-08-13, 03:41:04,VALID,1004.26,VALID,0,INVALID,113.64,VALID,0,VALID,23.7814,VALID,6,VALID,0.383984,
2010-08-13, 03:42:04,VALID,1004.26,VALID,0,INVALID,113.548,VALID,0,VALID,23.7991,VALID,6,VALID,0.179688,